Location: Lahitte
(43.6596°N, 0.6805°E)
Time: 05:35:44
(UTC+00:00)

YAOGAN 11 - Pass Details

Date: 15 May 2026
Orbit: 599 x 646 km, 98.4° (Epoch: 6 June)

Event Time Altitude Azimuth Distance (km) Brightness Sun altitude
Rises 20:47:24 0° 14° (NNE) 2,947 8.0 -14.2°
Reaches altitude 10° 20:49:36 10° 15° (NNE) 2,039 7.1 -14.5°
Maximum altitude 20:54:03 85° 103° (ESE) 652 4.1 -15.0°
Drops below altitude 10° 20:58:31 10° 193° (SSW) 2,038 6.4 -15.6°
Enters shadow 20:58:39 - 193° (SSW) 2,093 6.4 -15.6°
